This is the latest recevied weather packets stored in our database for station/object K6CED. If no packets are shown the sender has not sent any weather packets the latest 10 day(s).
| Time | Temp. | Humidity | Pressure | Rain* | Wind** | Luminosity | Snow |
|---|---|---|---|---|---|---|---|
| 1788279751 | 22.78° C | 52% | 1018.5 hPa | 0 mm | - | 511 W/m² | - |
| 1788279434 | 23.33° C | 49% | 1018.4 hPa | 0 mm | - | 498 W/m² | - |
| 1788279129 | 22.78° C | 53% | 1018.3 hPa | 0 mm | - | 481 W/m² | - |
| 1788278827 | 22.22° C | 58% | 1018.5 hPa | 0 mm | - | 467 W/m² | - |
| 1788278521 | 21.67° C | 60% | 1018.3 hPa | 0 mm | - | 449 W/m² | - |
| 1788278219 | 21.11° C | 61% | 1018.3 hPa | 0 mm | - | 431 W/m² | - |
| 1788277915 | 21.67° C | 61% | 1018.1 hPa | 0 mm | - | 185 W/m² | - |
| 1788277610 | 20.56° C | 64% | 1018.3 hPa | 0 mm | - | 387 W/m² | - |
| 1788277304 | 21.11° C | 62% | 1018.1 hPa | 0 mm | - | 370 W/m² | - |
| 1788277000 | 20° C | 66% | 1018.3 hPa | 0 mm | - | 349 W/m² | - |
| 1788276693 | 18.89° C | 71% | 1018.2 hPa | 0 mm | - | 325 W/m² | - |
| 1788276388 | 18.89° C | 71% | 1018.3 hPa | 0 mm | - | 309 W/m² | - |
| 1788276081 | 18.89° C | 70% | 1018.1 hPa | 0 mm | - | 290 W/m² | - |
| 1788275777 | 18.89° C | 70% | 1018.1 hPa | 0 mm | - | 272 W/m² | - |
| 1788275477 | 18.33° C | 70% | 1018.1 hPa | 0 mm | - | 251 W/m² | - |
| 1788275175 | 18.33° C | 70% | 1018 hPa | 0 mm | - | 233 W/m² | - |
| 1788274874 | 17.78° C | 70% | 1017.9 hPa | 0 mm | - | 214 W/m² | - |
| 1788274567 | 18.33° C | 69% | 1018 hPa | 0 mm | - | 194 W/m² | - |
| 1788274266 | 18.89° C | 65% | 1018.2 hPa | 0 mm | - | 179 W/m² | - |
| 1788273962 | 18.33° C | 65% | 1018 hPa | 0 mm | - | 167 W/m² | - |
| 1788273657 | 17.78° C | 65% | 1018.1 hPa | 0 mm | - | 152 W/m² | - |
| 1788273352 | 16.67° C | 67% | 1018.1 hPa | 0 mm | - | 133 W/m² | - |
| 1788273049 | 16.11° C | 68% | 1018.2 hPa | 0 mm | - | 117 W/m² | - |
| 1788272744 | 15.56° C | 70% | 1018 hPa | 0 mm | - | 97 W/m² | - |
| 1788272446 | 14.44° C | 74% | 1018.2 hPa | 0 mm | - | 82 W/m² | - |
* Rain latest hour (hover to see other rain measurements)
** Current wind speed in m/s (hover to see current wind gust speed)